Middletown, PA

1:53 PM EDT on June 26, 2017 (GMT -0400)
Harrisburg International

Weather History for KMDT - December, 2012

Change the Weather History Date:

Monday, December 10, 2012

  Actual Average Record
Temperature  
Mean Temperature 45 °F 35 °F  
Max Temperature 49 °F 43 °F 71 °F (1946)
Min Temperature 40 °F 28 °F 6 °F (1917)
Degree Days  
Heating Degree Days 20 30  
Month to date heating degree days 207 284  
Since 1 July heating degree days 1272 1323  
Cooling Degree Days 0 0  
Month to date cooling degree days 0 0  
Year to date cooling degree days 1226 1002  
Moisture  
Dew Point 44 °F    
Average Humidity 97    
Maximum Humidity 100    
Minimum Humidity 93    
Precipitation  
Precipitation 0.09 in 0.12 in 1.51 in (1969)
Month to date precipitation 0.83 1.16  
Year to date precipitation 42.26 38.67  
Snow  
Snow 0.00 in 0.10 in 4.50 in (1904)
Month to date snowfall 0.0 1.3  
Since 1 July snowfall 1.1 1.9  
Snow Depth 0.00 in    
Sea Level Pressure  
Sea Level Pressure 29.69 in    
Wind  
Wind Speed 3 mph (NW)    
Max Wind Speed 21 mph    
Max Gust Speed 29 mph    
Visibility 2 miles    
Events Fog , Rain    
T = Trace of Precipitation, MM = Missing Value Source: NWS Daily Summary

Daily Weather History Graph

Daily Weather History Graph

Search for Another Location

Airport or City:

Trip Planner

Search our weather history database for the weather conditions in past years. The results will help you decide how hot, cold, wet, or windy it might be!

Date:

Astronomy

Dec. 10, 2012 Rise Set
Actual Time 7:18 AM EST 4:41 PM EST
Civil Twilight 6:48 AM EST 5:11 PM EST
Nautical Twilight 6:14 AM EST 5:45 PM EST
Astronomical Twilight 5:41 AM EST 6:18 PM EST
Moon 3:59 AM EST (12/10) 2:29 PM EST (12/10)
Length of Visible Light 10h 23m
Length of Day
9h 22m
Waning Crescent, 10% of the Moon is Illuminated
Dec 10
Waning Crescent
Dec 13
New
Dec 20
First Quarter
Dec 28
Full
Jan 4
Last Quarter

Hourly Weather History & Observations

Time (EST) Temp. Windchill Dew Point Humidity Pressure Visibility Wind Dir Wind Speed Gust Speed Precip Events Conditions
12:56 AM 41.0 °F 39.0 °F 39.9 °F 96% 29.96 in 0.8 mi ESE 3.5 mph - 0.00 in   Light Drizzle
1:56 AM 39.9 °F 36.7 °F 39.9 °F 100% 29.92 in 0.8 mi ESE 4.6 mph - 0.00 in   Light Drizzle
2:56 AM 41.0 °F 39.0 °F 39.9 °F 96% 29.90 in 0.5 mi ESE 3.5 mph - 0.00 in Fog Drizzle
3:56 AM 41.0 °F 38.0 °F 39.9 °F 96% 29.86 in 0.5 mi ESE 4.6 mph - 0.00 in Fog Drizzle
4:56 AM 41.0 °F - 41.0 °F 100% 29.83 in 0.5 mi Calm Calm - 0.00 in Fog Drizzle
5:56 AM 41.0 °F - 41.0 °F 100% 29.81 in 0.5 mi Calm Calm - 0.01 in Fog Drizzle
6:03 AM 41.0 °F - 41.0 °F 100% 29.80 in 0.8 mi Calm Calm - 0.00 in Fog Drizzle
6:33 AM 41.0 °F - 39.2 °F 93% 29.79 in 0.8 mi Calm Calm - 0.00 in   Mist
6:56 AM 41.0 °F - 39.9 °F 96% 29.80 in 0.8 mi Calm Calm - 0.00 in   Mist
7:46 AM 41.0 °F - 41.0 °F 100% 29.77 in 0.5 mi Calm Calm - N/A Fog Fog
7:56 AM 41.0 °F - 41.0 °F 100% 29.78 in 0.2 mi Calm Calm - N/A Fog Fog
8:37 AM 42.8 °F - 41.0 °F 93% 29.77 in 0.8 mi Calm Calm - N/A   Overcast
8:56 AM 42.1 °F 40.2 °F 42.1 °F 100% 29.78 in 0.8 mi North 3.5 mph - N/A   Overcast
9:22 AM 42.8 °F 41.1 °F 41.0 °F 93% 29.77 in 0.5 mi WNW 3.5 mph - 0.01 in Fog Fog
9:40 AM 42.8 °F - 42.8 °F 100% 29.75 in 0.8 mi Calm Calm - 0.01 in   Light Drizzle
9:47 AM 42.8 °F - 42.8 °F 100% 29.75 in 0.2 mi Calm Calm - 0.01 in Fog Light Drizzle
9:56 AM 43.0 °F 41.3 °F 42.1 °F 97% 29.76 in 0.2 mi SSW 3.5 mph - 0.01 in Fog Light Drizzle
10:56 AM 44.1 °F - 43.0 °F 96% 29.73 in 0.2 mi Calm Calm - 0.00 in Fog Fog
11:26 AM 42.8 °F - 42.8 °F 100% 29.71 in 0.2 mi Calm Calm - 0.00 in Fog , Rain Light Rain
11:44 AM 44.6 °F - 44.6 °F 100% 29.70 in 1.0 mi Calm Calm - N/A Rain Light Rain
11:56 AM 45.0 °F - 45.0 °F 100% 29.71 in 2.0 mi Calm Calm - 0.03 in Rain Light Rain
12:13 PM 44.6 °F - 44.6 °F 100% 29.68 in 0.8 mi Calm Calm - 0.00 in   Overcast
12:20 PM 44.6 °F - 44.6 °F 100% 29.68 in 0.2 mi Calm Calm - 0.00 in Fog Fog
12:56 PM 46.0 °F - 45.0 °F 96% 29.65 in 0.5 mi Calm Calm - 0.00 in Fog Fog
12:59 PM 46.4 °F - 44.6 °F 93% 29.65 in 1.0 mi Calm Calm - N/A   Overcast
1:10 PM 46.4 °F - 46.4 °F 100% 29.64 in 2.5 mi Calm Calm - N/A   Overcast
1:20 PM 46.4 °F - 46.4 °F 100% 29.64 in 3.0 mi Calm Calm - N/A   Overcast
1:31 PM 46.4 °F - 46.4 °F 100% 29.64 in 1.0 mi Calm Calm - N/A   Overcast
1:56 PM 46.9 °F - 46.0 °F 97% 29.62 in 1.0 mi Calm Calm - N/A   Overcast
2:05 PM 44.6 °F 41.4 °F 44.6 °F 100% 29.61 in 0.5 mi SE 5.8 mph - 0.00 in Fog , Rain Light Rain
2:56 PM 46.0 °F - 46.0 °F 100% 29.61 in 0.2 mi Calm Calm - 0.01 in Fog Fog
3:25 PM 48.2 °F - 46.4 °F 93% 29.61 in 0.8 mi Calm Calm - N/A   Overcast
3:56 PM 48.0 °F - 46.9 °F 96% 29.59 in 1.0 mi Calm Calm - 0.00 in   Overcast
4:56 PM 46.9 °F - 46.9 °F 100% 29.59 in 1.0 mi Calm Calm - 0.01 in   Overcast
5:56 PM 46.9 °F - 46.0 °F 97% 29.59 in 1.0 mi NW 4.6 mph - N/A   Overcast
6:16 PM 46.4 °F 43.5 °F 46.4 °F 100% 29.59 in 0.5 mi NW 5.8 mph - 0.00 in Fog , Rain Light Rain
6:56 PM 48.0 °F - 48.0 °F 100% 29.58 in 1.0 mi Calm Calm - 0.00 in Rain Light Rain
7:07 PM 46.4 °F - 44.6 °F 93% 29.57 in 0.5 mi Calm Calm - 0.01 in Fog Fog
7:56 PM 48.0 °F - 46.9 °F 96% 29.57 in 0.8 mi Calm Calm - 0.01 in   Overcast
8:56 PM 46.9 °F - 46.9 °F 100% 29.59 in 0.8 mi WNW 8.1 mph - N/A   Overcast
9:33 PM 46.4 °F 42.4 °F 46.4 °F 100% 29.59 in 0.5 mi NW 8.1 mph - N/A Fog Fog
9:56 PM 48.0 °F - 48.0 °F 100% 29.60 in 0.5 mi NW 9.2 mph - N/A Fog Fog
10:19 PM 48.2 °F - 48.2 °F 100% 29.60 in 0.8 mi NW 10.4 mph - 0.00 in Fog , Rain Light Rain
10:29 PM 48.2 °F - 48.2 °F 100% 29.60 in 3.0 mi NW 9.2 mph - 0.00 in Fog , Rain Light Rain
10:44 PM 46.4 °F 39.2 °F 46.4 °F 100% 29.62 in 5.0 mi NW 18.4 mph 28.8 mph 0.01 in Fog , Rain Light Rain
10:56 PM 46.0 °F 38.8 °F 44.1 °F 93% 29.64 in 10.0 mi WNW 18.4 mph - 0.01 in   Overcast
11:19 PM 46.4 °F 39.8 °F 42.8 °F 87% 29.64 in 10.0 mi NW 16.1 mph - N/A   Overcast
11:38 PM 48.2 °F - 42.8 °F 82% 29.66 in 10.0 mi NW 15.0 mph 21.9 mph N/A   Overcast
11:56 PM 46.9 °F - 42.1 °F 83% 29.68 in 10.0 mi NW 15.0 mph 23.0 mph N/A   Overcast